Volver al catálogo

STARLINK-37729

ActivoComunicacionesSSO
NORAD 69653·PAYLOAD·🇺🇸 United States

Lanzado Jun 21, 2026 desde Vandenberg Space Force Base

Loading…

Próximos Pases (próximas 24 horas)

TLE

ActualizadoSource: CelesTrak SupGP

Época: Sep 15, 2026, 03:50 UTC

1 69653C 26143E   26258.16020833 -.00028566  00000+0 -11006-2 0  2587
2 69653  97.2838 301.5849 0000954  89.9568 268.6671 15.26426766    13

Sigue STARLINK-37729 en tiempo real con AllMySat

Download on the App Store